{"data":{"norad_id":68895,"intl_designator":"2026-097A","name":"STARLINK-37527","alt_names":[],"object_type":"PAYLOAD","status":"ACTIVE","operator":null,"country":"US","launch_date":"2026-04-30","launch_site_code":"AFWTR","launch_vehicle":null,"mission":null,"orbit_class":"UNKNOWN","rcs_meters":null,"size_class":null,"mass_kg":null,"dimensions":null,"purposes":["comms"],"wikipedia_slug":null,"has_3d_model":false,"image_url":null,"decayed_at":null,"tle_current":{"epoch":"2026-05-25T04:17:59.753184Z","epoch_age_seconds":53451,"freshness":"FRESH","line1":"1 68895U 26097A   26145.17916381 -.01077294  00000+0 -23925-1 0  9997","line2":"2 68895  97.2854 340.9238 0001501  82.0733 278.0687 15.46586917  3959","mean_motion":15.46586917,"eccentricity":0.0001501,"inclination_deg":97.2854,"raan_deg":340.9238,"arg_perigee_deg":82.0733,"mean_anomaly_deg":278.0687,"bstar":-0.023925,"rev_number":395,"period_min":93.108249149892,"perigee_km":425.69780918398,"apogee_km":427.74062702065,"semimajor_km":6804.8562181023,"source":"CELESTRAK","updated_at":"2026-05-25T13:38:22.065960Z"}}}